Home > Weather > Nanjing > Past weeks

Flag for China Weather for the Past 2 Weeks in Nanjing, Jiangsu, China

Now
63 °F

Clear.


Feels Like: 63 °F
Forecast: 57 / 82 °F
Wind: No wind

Location: Nanjing

Current Time: Apr 30, 2016 at 12:52:50 AM

Latest Report: Apr 30, 2016 at 12:00 AM


Visibility: 10 mi

Pressure: 29.89 "Hg

Humidity: 77%

Dew Point: 55 °F

Location of NanjingLocation

Historic Weather in Nanjing — Graph

°F

Nanjing Temperature Yesterday

Maximum temperature yesterday: 79 °F (at 2:00 PM)
Minimum temperature yesterday: 54 °F (at 5:00 AM)
Average temperature yesterday: 67 °F

High & Low Weather Summary for the Past Weeks

 TemperatureHumidityPressure
High79 °F (Apr 19, 1:00 PM)100% (Apr 16, 7:00 AM)30.09 "Hg (Apr 16, 7:00 AM)
Low50 °F (Apr 17, 5:00 AM)30% (Apr 19, 12:00 PM)29.47 "Hg (Apr 16, 1:00 PM)
Average63 °F77%29.90 "Hg
* Reported Apr 14 11:00 PM — Apr 29 11:00 PM, Nanjing, Weather by CustomWeather, © 2016

Note: Actual official high and low records may vary slightly from our data, if they occured in-between our weather recording intervals... More about our weather records

Advertising

Nanjing Weather History for the Previous 24 Hours

Scroll right to see more
 ConditionsComfort  
Time TempWeatherWind HumidityBarometerVisibility
11:00 PM
Fri, Apr 29
64 °FClear.1 mph68%29.92 "Hg10 mi
10:00 PM66 °FClear.3 mph68%29.92 "Hg10 mi
9:00 PM66 °FClear.3 mph78%29.95 "Hg10 mi
8:00 PM68 °FClear.3 mph78%29.92 "Hg10 mi
7:00 PM70 °FClear.3 mph69%29.92 "Hg10 mi
6:00 PM75 °FSunny.3 mph47%29.92 "Hg10 mi
5:00 PM77 °FSunny.6 mph39%29.92 "Hg10 mi
4:00 PM79 °FSunny.8 mph34%29.95 "Hg10 mi
3:00 PM79 °FPassing clouds.8 mph34%29.95 "HgN/A
2:00 PM79 °FPassing clouds.6 mph34%29.98 "HgN/A
1:00 PM77 °FPartly sunny.6 mph51%30.01 "Hg6 mi
12:00 PM77 °FPassing clouds.3 mph42%30.01 "HgN/A
11:00 AM75 °FPassing clouds.1 mph47%30.04 "Hg6 mi
10:00 AM73 °FClear.3 mph53%30.07 "Hg5 mi
9:00 AM72 °FClear.1 mph65%30.07 "Hg4 mi
8:00 AM64 °FClear.1 mph88%30.04 "Hg4 mi
7:00 AM59 °FFog.1 mph100%30.04 "Hg2 mi
6:00 AM55 °FFog.1 mph100%30.04 "Hg1 mi
5:00 AM54 °FFog.1 mph100%30.01 "Hg1 mi
4:00 AM55 °FFog.No wind94%30.01 "Hg1 mi
3:00 AM55 °FFog.1 mph100%30.01 "Hg2 mi
2:00 AM55 °FClear.1 mph94%30.01 "Hg4 mi
1:00 AM57 °FClear.1 mph88%30.01 "Hg5 mi
12:00 AM57 °FClear.1 mph94%30.01 "Hg10 mi
Weather by CustomWeather, © 2016

See weather overviewHow to use our weather pages